FW9017 Weather Reports


time (UTC)temp
C
wind
direction
speed
KPH
gust
KPH
rain 1hr
cm
rain 24hr
cm
rain mn
cm
humidity
%
barometer
mb
20260502130108 11 355 0.0 6.4 0.00 0.05 0.05 81 1011.8
20260502123106 10 88 1.6 6.4 0.00 0.05 0.05 89 1012.0
20260502121601 9 97 3.2 6.4 0.03 0.05 0.05 95 1012.4
20260502114602 8 113 0.0 3.2 0.05 0.05 0.05 96 1012.7
20260502113059 8 0 0.0 3.2 0.05 0.05 0.05 95 1012.6
20260502111556 8 0 0.0 3.2 0.03 0.03 0.03 95 1012.3
20260502110055 8 113 1.6 6.4 0.03 0.03 0.03 94 1012.6
20260502104556 8 0 1.6 3.2 0.00 0.00 0.00 94 1012.6
20260502103057 8 0 0.0 3.2 0.00 0.00 0.00 93 1013.0
20260502101558 8 82 0.0 4.8 0.00 0.00 0.00 93 1012.0
20260502070059 9 0 0.0 1.6 0.00 0.00 0.00 83 1011.5
20260502064557 10 0 0.0 3.2 0.00 0.00 0.00 82 1011.7
20260502063058 10 0 0.0 1.6 0.00 0.00 0.00 81 1011.7
20260502061556 10 118 0.0 3.2 0.00 0.00 0.00 80 1011.8
20260502060101 10 0 0.0 3.2 0.00 0.00 0.00 80 1011.9
20260502054558 10 0 0.0 3.2 0.00 0.00 0.00 78 1011.8
20260502053102 10 0 0.0 1.6 0.00 0.00 0.00 77 1011.9
20260502051601 10 118 0.0 3.2 0.00 0.00 0.00 76 1011.8
20260502050057 10 0 0.0 1.6 0.00 0.00 0.00 75 1011.8
20260502044557 10 0 0.0 3.2 0.00 0.00 0.00 75 1011.9
20260502043105 11 0 0.0 1.6 0.00 0.00 0.00 74 1011.8
20260502041557 11 0 0.0 1.6 0.00 0.00 0.00 72 1011.9
20260502040055 11 0 0.0 1.6 0.00 0.00 0.00 73 1011.9
20260502034556 11 111 0.0 3.2 0.00 0.00 0.00 72 1011.8
20260502033058 11 0 0.0 1.6 0.00 0.00 0.00 71 1012.1
20260502031600 11 0 0.0 1.6 0.00 0.00 0.00 70 1012.0
20260502030057 11 0 0.0 1.6 0.00 0.00 0.00 70 1012.0
20260502024558 11 0 0.0 1.6 0.00 0.00 0.00 69 1012.1
20260502023055 11 0 0.0 1.6 0.00 0.00 0.00 67 1012.0
20260502021554 12 114 0.0 3.2 0.00 0.00 0.00 66 1012.1
20260502020057 12 0 0.0 4.8 0.00 0.00 0.00 66 1012.1
20260502014601 12 0 0.0 3.2 0.00 0.00 0.00 67 1012.0
20260502013059 12 108 0.0 3.2 0.00 0.00 0.00 64 1011.9
20260502011557 12 0 0.0 3.2 0.00 0.00 0.00 63 1011.8
20260502010100 13 0 0.0 8.0 0.00 0.00 0.00 59 1011.6
20260502004604 13 0 0.0 3.2 0.00 0.00 0.00 56 1011.4
20260502003100 13 0 0.0 3.2 0.00 0.00 0.00 53 1011.2
20260502001556 13 0 0.0 3.2 0.00 0.00 0.00 50 1010.9
20260502000106 14 0 0.0 3.2 0.00 0.00 0.00 51 1010.9
20260501234556 15 0 0.0 3.2 0.00 0.00 0.00 49 1010.5
20260501233102 15 264 1.6 3.2 0.00 0.00 0.00 45 1010.3
20260501231555 15 0 0.0 1.6 0.00 0.00 0.00 44 1010.1
20260501230100 15 0 0.0 3.2 0.00 0.00 0.00 44 1009.9
20260501224601 16 0 1.6 11.3 0.00 0.08 0.00 40 1010.0
20260501223101 16 0 0.0 3.2 0.00 0.08 0.00 42 1009.8
20260501221602 17 247 3.2 11.3 0.00 0.08 0.00 40 1009.7
20260501220101 17 302 0.0 4.8 0.00 0.08 0.00 37 1009.8
20260501214558 17 251 4.8 16.1 0.00 0.08 0.00 39 1010.0
20260501213104 17 355 3.2 16.1 0.00 0.08 0.00 37 1009.9
20260501211552 17 261 3.2 12.9 0.00 0.08 0.00 37 1010.1
20260501210055 18 319 3.2 14.5 0.00 0.08 0.00 36 1009.8
20260501204556 17 315 1.6 9.7 0.00 0.08 0.00 37 1009.8
20260501203057 17 331 1.6 8.0 0.00 0.08 0.00 36 1009.7
20260501201612 17 275 6.4 16.1 0.00 0.08 0.00 36 1009.8
20260501200058 17 340 1.6 14.5 0.00 0.08 0.00 39 1009.6
20260501194553 16 279 3.2 12.9 0.00 0.08 0.00 37 1010.0
20260501193100 17 275 4.8 14.5 0.00 0.08 0.00 36 1009.9
20260501191557 17 9 3.2 14.5 0.00 0.08 0.00 38 1009.9
20260501190054 17 279 3.2 16.1 0.00 0.08 0.00 37 1010.3
20260501184556 17 333 4.8 14.5 0.00 0.08 0.00 39 1010.5
20260501183057 17 0 4.8 16.1 0.00 0.08 0.00 38 1010.7
20260501181559 16 302 6.4 14.5 0.00 0.08 0.00 38 1010.7
20260501180057 16 254 4.8 17.7 0.00 0.08 0.00 36 1010.6
20260501174558 16 35 8.0 14.5 0.00 0.08 0.00 38 1010.8
20260501173056 16 340 4.8 12.9 0.00 0.08 0.00 38 1010.8
20260501171558 16 326 3.2 16.1 0.00 0.08 0.00 40 1010.9
20260501170057 15 344 4.8 16.1 0.00 0.08 0.00 41 1011.1
20260501164556 15 355 8.0 22.5 0.00 0.10 0.00 40 1011.1
20260501163057 15 336 8.0 16.1 0.00 0.10 0.00 44 1011.4
20260501161556 14 273 9.7 17.7 0.00 0.10 0.00 40 1011.5
20260501160101 13 351 6.4 17.7 0.00 0.10 0.00 46 1011.7
20260501154559 13 47 12.9 20.9 0.00 0.10 0.00 45 1011.7
20260501153103 13 15 9.7 17.7 0.00 0.10 0.00 46 1012.0
20260501151559 13 336 6.4 16.1 0.00 0.10 0.00 47 1012.0
20260501150058 13 5 4.8 16.1 0.00 0.10 0.00 51 1012.0
20260501144558 12 323 4.8 17.7 0.00 0.10 0.00 51 1012.2
20260501143101 12 321 6.4 14.5 0.00 0.10 0.00 52 1012.2